Location: Newark
(12.4436°N, 0.6167°W)
Time: 19:08:53
(UTC+00:00)

Transit 2A - Pass Details

Date: 15 December 2019
Orbit: 601 x 958 km, 66.7° (Epoch: 28 January)

Event Time Altitude Azimuth Distance (km) Brightness Sun altitude
Rises 14:32:58 0° 15° (NNE) 2,985 8.7 37.8°
Reaches altitude 10° 14:37:17 10° 53° (NE) 2,163 8.0 37.1°
Maximum altitude 14:38:26 11° 67° (ENE) 2,138 8.0 36.9°
Drops below altitude 10° 14:39:36 10° 80° (E) 2,215 8.1 36.6°
Sets 14:44:14 0° 117° (ESE) 3,250 9.1 35.8°
